| time (UTC) | temp F | wind direction | speed knots | gust knots | rain 1hr in | rain 24hr in | rain mn in | humidity % | barometer mb |
| 20260505183306 | 35 | 250 | 14.8 | 0.0 | 0.00 | 0.00 | 0.00 | 93 | 1005.0 |
| 20260505180307 | 37 | 270 | 15.6 | 0.0 | 0.00 | 0.00 | 0.00 | 80 | 1005.0 |
| 20260505173307 | 37 | 270 | 13.0 | 0.0 | 0.00 | 0.00 | 0.00 | 80 | 1005.0 |
| 20260505170307 | 39 | 280 | 8.7 | 0.0 | 0.00 | 0.00 | 0.00 | 80 | 1005.0 |
| 20260505163307 | 41 | 260 | 10.4 | 0.0 | 0.00 | 0.00 | 0.00 | 70 | 1005.0 |
| 20260505160307 | 41 | 240 | 12.2 | 0.0 | 0.00 | 0.00 | 0.00 | 70 | 1005.0 |
| 20260505153307 | 41 | 230 | 11.3 | 0.0 | 0.00 | 0.00 | 0.00 | 75 | 1005.0 |
| 20260505150306 | 37 | 280 | 13.0 | 0.0 | 0.00 | 0.00 | 0.00 | 80 | 1005.0 |
| 20260505140307 | 41 | 260 | 12.2 | 22.6 | 0.00 | 0.00 | 0.00 | 65 | 1004.0 |
| 20260505130307 | 42 | 240 | 11.3 | 0.0 | 0.00 | 0.00 | 0.00 | 65 | 1005.0 |
| 20260505123306 | 41 | 250 | 10.4 | 0.0 | 0.00 | 0.00 | 0.00 | 70 | 1004.0 |
| 20260505120306 | 42 | 250 | 10.4 | 0.0 | 0.00 | 0.00 | 0.00 | 60 | 1004.0 |
| 20260505113307 | 41 | 250 | 13.0 | 0.0 | 0.00 | 0.00 | 0.00 | 70 | 1004.0 |
| 20260505110307 | 41 | 250 | 12.2 | 0.0 | 0.00 | 0.00 | 0.00 | 70 | 1004.0 |
| 20260505100307 | 41 | 270 | 13.9 | 0.0 | 0.00 | 0.00 | 0.00 | 70 | 1004.0 |
| 20260505093306 | 41 | 240 | 8.7 | 0.0 | 0.00 | 0.00 | 0.00 | 65 | 1003.0 |
| 20260505090307 | 41 | 220 | 7.8 | 0.0 | 0.00 | 0.00 | 0.00 | 70 | 1003.0 |
| 20260505083306 | 37 | 250 | 13.0 | 0.0 | 0.00 | 0.00 | 0.00 | 74 | 1003.0 |
| 20260505080307 | 37 | 230 | 10.4 | 0.0 | 0.00 | 0.00 | 0.00 | 74 | 1003.0 |
| 20260505073306 | 37 | 210 | 7.8 | 0.0 | 0.00 | 0.00 | 0.00 | 80 | 1003.0 |
| 20260505070307 | 39 | 250 | 7.0 | 0.0 | 0.00 | 0.00 | 0.00 | 75 | 1003.0 |
| 20260505063306 | 41 | 110 | 2.6 | 0.0 | 0.00 | 0.00 | 0.00 | 75 | 1002.0 |
| 20260505060306 | 39 | 100 | 2.6 | 0.0 | 0.00 | 0.00 | 0.00 | 80 | 1002.0 |
| 20260505053309 | 35 | 0 | 0.0 | 0.0 | 0.00 | 0.00 | 0.00 | 86 | 1002.0 |
| 20260505050306 | 33 | 330 | 4.3 | 0.0 | 0.00 | 0.00 | 0.00 | 93 | 1002.0 |
| 20260505040306 | 35 | 190 | 6.1 | 0.0 | 0.00 | 0.00 | 0.00 | 86 | 1002.0 |
| 20260505033306 | 33 | 210 | 2.6 | 0.0 | 0.00 | 0.00 | 0.00 | 93 | 1002.0 |
| 20260505030306 | 33 | 190 | 2.6 | 0.0 | 0.00 | 0.00 | 0.00 | 93 | 1002.0 |
| 20260505023306 | 33 | 210 | 0.9 | 0.0 | 0.00 | 0.00 | 0.00 | 93 | 1002.0 |
| 20260505020306 | 33 | 350 | 2.6 | 0.0 | 0.00 | 0.00 | 0.00 | 93 | 1002.0 |
| 20260505013306 | 35 | 350 | 11.3 | 0.0 | 0.00 | 0.00 | 0.00 | 86 | 1002.0 |
| 20260505010306 | 37 | 310 | 7.0 | 0.0 | 0.00 | 0.00 | 0.00 | 74 | 1002.0 |
| 20260505003306 | 35 | 230 | 2.6 | 0.0 | 0.00 | 0.00 | 0.00 | 74 | 1002.0 |
| 20260505000306 | 37 | 270 | 1.7 | 0.0 | 0.00 | 0.00 | 0.00 | 69 | 1002.0 |
| 20260504233306 | 39 | 280 | 1.7 | 0.0 | 0.00 | 0.00 | 0.00 | 64 | 1001.0 |
| 20260504230307 | 39 | 310 | 2.6 | 0.0 | 0.00 | 0.00 | 0.00 | 64 | 1002.0 |
| 20260504223307 | 39 | 320 | 2.6 | 0.0 | 0.00 | 0.00 | 0.00 | 60 | 1002.0 |
| 20260504220327 | 39 | 320 | 6.1 | 0.0 | 0.00 | 0.00 | 0.00 | 64 | 1001.0 |
| 20260504213308 | 39 | 330 | 7.8 | 0.0 | 0.00 | 0.00 | 0.00 | 64 | 1001.0 |
| 20260504210306 | 39 | 330 | 7.8 | 0.0 | 0.00 | 0.00 | 0.00 | 75 | 1001.0 |
| 20260504203309 | 39 | 310 | 7.0 | 0.0 | 0.00 | 0.00 | 0.00 | 75 | 1001.0 |
| 20260504200311 | 39 | 350 | 10.4 | 0.0 | 0.00 | 0.00 | 0.00 | 69 | 1001.0 |
| 20260504193311 | 37 | 0 | 1.7 | 0.0 | 0.00 | 0.00 | 0.00 | 86 | 1001.0 |
| 20260504190310 | 37 | 0 | 1.7 | 0.0 | 0.00 | 0.00 | 0.00 | 86 | 1000.0 |